Flag for Canada Weather past 2 weeks in Cornwall, Ontario, Canada

Now
74 °F

Mild.


Feels Like: 74 °F
Forecast: 63 / 87 °F
Wind: 3 mph from Northeast

Location: St Anicet

Current Time: Jul 27, 2015 at 10:34:17 PM

Latest Report: Jul 27, 2015 at 10:00 PM


Visibility: N/A

Pressure: 29.92 "Hg

Humidity: 82%

Dew point: 68 °F

Location of CornwallLocation

Historic Weather in Cornwall — Graph

°F

Cornwall temperature yesterday

Maximum temperature yesterday: 83 °F (at 5:00 PM)
Minimum temperature yesterday: 62 °F (at 11:00 PM)
Average temperature yesterday: 72 °F

Past Weeks' High & Low Weather Summary

 TemperatureHumidityPressure
High88 °F (Jul 27, 5:00 PM)100% (Jul 14, 12:00 AM)30.14 "Hg (Jul 14, 12:00 AM)
Low42 °F (Jul 16, 6:00 AM)41% (Jul 16, 6:00 PM)29.50 "Hg (Jul 21, 3:00 PM)
Average69 °F80%29.82 "Hg
* Reported Jul 12 9:00 PM — Jul 27 9:00 PM, Cornwall, Weather by CustomWeather, © 2015

Note: Actual official high and low records may vary slightly from our data, if they occured in-between our weather recording intervals... More about our weather records

Advertising

Cornwall weather history for previous 24 hours

 ConditionsComfort  
Time TempWeatherWind HumidityBarometerVisibility
9:00 PM
Mon, Jul 27
74 °FMild.3 mph86%29.92 "HgN/A
8:00 PM80 °FWarm.1 mph83%29.91 "HgN/A
7:00 PM81 °FWarm.No wind82%29.90 "HgN/A
6:00 PM83 °FWarm.2 mph66%29.90 "HgN/A
5:00 PM88 °FWarm.5 mph53%29.90 "HgN/A
4:00 PM85 °FWarm.6 mph65%29.91 "HgN/A
3:00 PM86 °FWarm.7 mph60%29.92 "HgN/A
2:00 PM86 °FWarm.5 mph64%29.94 "HgN/A
1:00 PM84 °FWarm.6 mph66%29.95 "HgN/A
12:00 PM83 °FWarm.6 mph67%29.96 "HgN/A
11:00 AM82 °FWarm.7 mph69%29.96 "HgN/A
10:00 AM80 °FWarm.6 mph73%29.96 "HgN/A
9:00 AM77 °FMild.6 mph81%29.97 "HgN/A
8:00 AM73 °FMild.3 mph86%29.96 "HgN/A
7:00 AM68 °FMild.2 mph98%29.96 "HgN/A
6:00 AM65 °FMild.3 mph99%29.94 "HgN/A
5:00 AM65 °FMild.3 mph99%29.93 "HgN/A
4:00 AM64 °FMild.2 mph99%29.92 "HgN/A
3:00 AM65 °FMild.3 mph100%29.93 "HgN/A
2:00 AM64 °FMild.3 mph99%29.92 "HgN/A
1:00 AM64 °FMild.3 mph100%29.93 "HgN/A
12:00 AM62 °FCool.1 mph99%29.93 "HgN/A
11:00 PM
Sun, Jul 26
62 °FCool.No wind100%29.92 "HgN/A
10:00 PM66 °FMild.No wind97%29.92 "HgN/A
Weather by CustomWeather, © 2015

See weather overviewHow to use our weather pages